Regional Weather Roundup
Issued by NWS Upton, NY

Current Version | Previous Version | Graphics & Text | Print | Product List | Glossary Off
Versions: 1 2 3 4 5 6 7 8 9 10 11 12 13 14 15 16 17 18 19 20 21 22 23 24 25 26 27 28 29 30 31 32 33 34 35 36 37 38 39 40 41 42 43 44 45 46 47 48 49 50

000
ASUS41 KOKX 282004
RWROKX

REGIONAL WEATHER ROUNDUP
NATIONAL WEATHER SERVICE NEW YORK NY
400 PM EDT THU APR 28 2016

NOTE: "FAIR" INDICATES FEW OR NO CLOUDS BELOW 12,000 FEET WITH NO
SIGNIFICANT WEATHER AND/OR OBSTRUCTIONS TO VISIBILITY.

NYZ071-072-176-178-NJZ106-104-282100-
NEW YORK CITY METRO AREA


CITY           SKY/WX    TMP DP  RH WIND       PRES   REMARKS
CENTRAL PARK   PTSUNNY   55  31  39 VRB6      30.05F
LAGUARDIA APRT CLOUDY    54  33  45 S13G20    30.03F
KENNEDY INTL   CLOUDY    53  32  44 S12       30.06S
NEWARK/LIBERTY CLOUDY    55  31  39 S12       30.03F
BRNX BOT. GARD   N/A     54  34  47 SE15      30.05R
TETERBORO      CLOUDY    55  33  43 S12       30.02S
$$

NYZ177-179-078>081-282100-
LONG ISLAND NEW YORK

CITY           SKY/WX    TMP DP  RH WIND       PRES   REMARKS
FARMINGDALE    CLOUDY    52  33  48 S13       30.04F
ISLIP          CLOUDY    50  35  56 S12       30.04S
SHIRLEY        MOSUNNY   50  34  54 SE8       30.05S
RIVERHEAD        N/A     52  37  58 SW1       30.04R
WESTHAMPTON    CLOUDY    48  35  60 S8        30.06F
EAST HAMPTON   FAIR      49  35  57 SE13G18   30.04S
MONTAUK POINT    N/A     49  37  63 S9        30.06S
$$

NYZ052-065-067-282100-
HUDSON VALLEY

CITY           SKY/WX    TMP DP  RH WIND       PRES   REMARKS
WHITE PLAINS   CLOUDY    54  35  48 S9        30.01F
NEWBURGH       PTSUNNY   57  19  23 SW6       30.00F
MONTGOMERY       N/A     57  27  31 MISG      29.98F
POUGHKEEPSIE   CLOUDY    60  21  22 W5        29.98F
ALBANY         PTSUNNY   58  23  26 E6        29.99F
$$

NJZ001-105-106-008-010-013-015-019>022-104-282100-
NEW JERSEY

CITY           SKY/WX    TMP DP  RH WIND       PRES   REMARKS
NEWARK/LIBERTY CLOUDY    55  31  39 S12       30.03F
TETERBORO      CLOUDY    55  33  43 S12       30.02S
CALDWELL       PTSUNNY   57  33  40 S10       30.02F
MORRISTOWN     CLOUDY    57  30  35 S10       30.02F
SOMERVILLE     LGT RAIN  55  28  35 S6        30.00F
SUSSEX         CLOUDY    59  26  28 CALM      30.00F
ANDOVER          N/A     59  26  28 SW9       29.99F
TRENTON        LGT RAIN  48  38  68 SE8       30.03S
MILLVILLE      CLOUDY    48  42  80 E10       30.01S
ATLANTIC CITY  LGT RAIN  47  42  83 E10       30.00F
WRIGHTSTOWN    NOT AVBL
TOMS RIVER     CLOUDY    48  43  81 E6        30.02F
BELMAR         LGT RAIN  48  35  60 E8        30.04F
$$

PAZ047>061-062-071-282100-
EASTERN PENNSYLVANIA

CITY           SKY/WX    TMP DP  RH WIND       PRES   REMARKS
PHILADELPHIA   CLOUDY    49  39  68 E6        30.04S
ALLENTOWN      LGT RAIN  52  39  61 S7        30.02S
SCRANTON       LGT RAIN  49  38  65 SW6       30.00R
$$

CTZ002-004>006-009-010-012-RIZ004-006-007-MAZ004-011-015-282100-
SOUTHERN NEW ENGLAND
 IN CT

CITY           SKY/WX    TMP DP  RH WIND       PRES   REMARKS
BRADLEY INTL   PTSUNNY   60  18  19 SE6G18    29.96F
HARTFORD       PTSUNNY   61  21  21 SE7       29.98F
DANBURY        CLOUDY    55  25  31 S12       30.01S
WTRBRY/OXFORD  CLOUDY    54  25  32 S9        30.01
BRIDGEPORT     CLOUDY    54  39  57 S15       30.03S
MERIDEN        CLOUDY    56  23  27 S10G21    30.01R
NEW HAVEN      CLOUDY    52  38  58 S14G20    30.03S
CHESTER        FAIR      52  32  46 S12       30.02R
GROTON         CLOUDY    50  39  66 S14       30.03F
WILLIMANTIC    CLOUDY    59  26  28 S12G20    29.98F

 IN RI

CITY           SKY/WX    TMP DP  RH WIND       PRES   REMARKS
PROVIDENCE     PTSUNNY   52  30  43 S14       30.02S
BLOCK ISLAND   CLOUDY    48  34  58 S14       30.05S
WESTERLY       CLOUDY    50  33  52 S13       30.04S

 IN MA

CITY           SKY/WX    TMP DP  RH WIND       PRES   REMARKS
BOSTON         CLOUDY    49  31  49 E18       30.01F
WORCESTER      MOSUNNY   55  18  23 SW5       29.97F
WESTFIELD      CLOUDY    61  18  18 VRB6      29.96F
PROVINCETOWN   MOSUNNY   49  21  33 E7        30.04F
NANTUCKET      MOSUNNY   49  30  48 SE13      30.04F
$$

ANZ330-335-338-340-345-350-353-355-282100-
COASTAL MARINE OBSERVATIONS


STATION/POSITION TIME  SKY/WX   TEMP    WIND        PRES    VSBY  WAVE
                                AIR SEA DIR/SP/G                  HT/PER
                 (UTC)          (F)     (DEG/KT/KT) (MB)    (MI)  (FT/S)
NY HARB ENTRANCE 1850            50 51  140/ 12/ 16 1017.2          3/ 4
20S FIRE ISLAND  1850            48 49  110/ 12/ 14 1017.4          3/ 4
GREAT SOUTH BAY  1900            49 58  140/ 12/ 14   N/A
23 SSW MONTAUK P 1950            46 47  160/ 12/ 14 1016.9          2/10
15 E BARNEGAT LI 1922               51                N/A           4/ 5
HUDSON CANYON    1850            50 49              1017.0          3/ 4
KINGS POINT      1900            52 53              1016.7
EXECUTION ROCKS  NOT AVBL
CENTRAL LI SOUND 1900            50     170/ 14/ 16   N/A           1
EASTERN LI SOUND 1900            48 47  140/ 12/ 16   N/A
ROBBINS REEF     1900            50     170/ 15/ 16 1016.8
$$


>>>>>>>>>>>>>>>>>>>>>>>>>>>> KEY <<<<<<<<<<<<<<<<<<<<<<<<<<<
>                                                          <
>     SKY/WX - SKY CONDITION/PRESENT WEATHER               <
>     TMP    - TEMPERATURE IN FAHRENHEIT                   <
>     DP     - DEWPOINT IN FAHRENHEIT                      <
>     RH     - RELATIVE HUMIDITY IN PERCENT                <
>     WIND   - DIRECTION AND SPEED IN MPH                  <
>     PRES   - MEAN SEA LEVEL PRESSURE IN INCHES OF HG     <
>     WCI    - WIND CHILL INDEX                            <
>     VSB    - VISIBILITY IN MILES                         <
>     HX     - HEAT INDEX                                  <
>     TC     - TEMPERATURE IN CELSIUS                      <
>     VRB    - VARIABLE WIND DIRECTION                     <
>                                                          <
>>>>>>>>>>>>>>>>>>>>>>>>>>>> KEY <<<<<<<<<<<<<<<<<<<<<<<<<<<





USA.gov is the U.S. government's official web portal to all federal, state and local government web resources and services.